Location: Boullarre
(49.1305°N, 3.0047°E)
Time: 19:23:53
(UTC+00:00)

DELTA 2 DEB (DPAF) - Pass Details

Date: 03 February 2023
Orbit: 624 x 629 km, 98.4° (Epoch: 25 March)

Event Time Altitude Azimuth Distance (km) Brightness Sun altitude
Rises 17:50:02 0° 12° (NNE) 2,929 7.3 -10.5°
Reaches altitude 10° 17:52:14 10° 11° (N) 2,019 6.5 -10.8°
Maximum altitude 17:56:36 72° 288° (WNW) 669 4.4 -11.5°
Drops below altitude 10° 18:00:58 10° 204° (SSW) 2,010 7.2 -12.2°
Sets 18:03:09 0° 202° (SSW) 2,916 8.0 -12.6°
